Weather Roundup
Issued by NWS

Home | Current Version | Previous Version | Text Only | Print | Product List | Glossary On
Versions: 1 2 3 4 5 6 7 8 9 10 11 12 13 14 15 16 17 18 19 20 21 22 23 24 25 26 27 28 29 30 31 32 33 34 35 36 37 38 39 40 41 42 43 44 45 46 47 48 49 50
000
NZUS93 KARX 261359
HRRWXR

CURRENT HOURLY OBSERVATIONS ACROSS
MUCH OF THE UPPER MISSISSIPPI VALLEY
NATIONAL WEATHER SERVICE LA CROSSE WI
900 AM CDT TUE MAY 26 2015


...SOUTHEAST MINNESOTA...


CITY           SKY/WX    TMP DP  RH WIND       PRES   REMARKS
ROCHESTER      LGT RAIN  62  58  86 S13       29.82S
ROCHESTER/MAYO CLOUDY    63  58  83 SW12G20   29.80F
WINONA         LGT RAIN  61  59  94 SE6       29.82S
AUSTIN         LGT RAIN  61  57  88 S3        29.82S
ALBERT LEA     RAIN      63  57  82 S3        29.81R
DODGE CENTER   CLOUDY    63  57  82 SW12      29.82R
PRESTON        CLOUDY    58  56  93 SW6       29.84S
OWATONNA       CLOUDY    61  59  94 E3        29.82R
FARIBAULT      CLOUDY    61  59  94 NE3       29.82R
$$

...ELSEWHERE IN MINNESOTA...


CITY           SKY/WX    TMP DP  RH WIND       PRES   REMARKS
MINNEAPOLIS    CLOUDY    58  56  93 N7        29.82S FOG
INTNL FALLS    MOSUNNY   61  51  70 S6        29.86F
DULUTH         CLOUDY    56  52  86 NE6       29.85S
RED WING       CLOUDY    61  61 100 SE3       29.80S
REDWOOD FALLS  CLOUDY    57  55  93 N6        29.82S FOG
MANKATO        CLOUDY    57  55  94 N5        29.81R
WORTHINGTON    CLOUDY    55  52  88 N9        29.83S
FAIRMONT       CLOUDY    57  52  82 N12       29.81R
$$

...SOUTHWEST WISCONSIN...


CITY           SKY/WX    TMP DP  RH WIND       PRES   REMARKS
LA CROSSE      LGT RAIN  64  61  90 S3        29.82R
PRAIRIE DU CHI HVY RAIN  64  62  91 CALM      29.80R
BOSCOBEL       RAIN      67  63  87 S6        29.81S FOG
LONE ROCK      NOT AVBL
PLATTEVILLE    CLOUDY    67  66  96 SE12      29.83S
FORT MC COY    CLOUDY    63  60  90 CALM      29.82S
VIROQUA        PTSUNNY   64  63  94 SE7       29.82S
WIS DELLS      CLOUDY    68  63  84 S12       29.84S
$$

...ELSEWHERE IN WISCONSIN...


CITY           SKY/WX    TMP DP  RH WIND       PRES   REMARKS
MILWAUKEE      CLOUDY    71  64  78 S16G23    29.91S
MADISON        CLOUDY    69  65  86 S13       29.85S
GREEN BAY      PTSUNNY   72  66  81 SW7       29.86F
EAU CLAIRE     NOT AVBL
BLACK RVR FLS  FAIR      63  63 100 CALM      29.81S
MEDFORD        CLOUDY    64  61  92 S5        29.85S
WAUSAU         CLOUDY    67  63  87 S5        29.84S
WIS RAPIDS     CLOUDY    66  61  84 SE3       29.85F
MARSHFIELD     CLOUDY    66  61  84 S6        29.84S
RICE LAKE      CLOUDY    59  58  96 E3        29.85R
$$

...NORTHEAST IOWA...


CITY           SKY/WX    TMP DP  RH WIND       PRES   REMARKS
DECORAH        RAIN      61  59  94 W3        29.84R
MASON CITY     LGT RAIN  61  58  90 W8        29.81S FOG
CHARLES CITY   RAIN      61  61 100 NE3       29.81F
OELWEIN        LGT RAIN  61  61 100 NW15      29.79F
$$

...ELSEWHERE IN IOWA...


CITY           SKY/WX    TMP DP  RH WIND       PRES   REMARKS
DES MOINES     LGT RAIN  63  60  90 N9        29.75F FOG
IOWA CITY      LGT RAIN  66  64  93 S9        29.75F
FORT DODGE     CLOUDY    59  57  94 CALM      29.79S
$$

...NORTHERN ILLINOIS...


CITY           SKY/WX    TMP DP  RH WIND       PRES   REMARKS
CHICAGO-OHARE  CLOUDY    69  64  84 S9        29.91F
CHICAGO-MIDWAY CLOUDY    73  66  78 S10G17    29.92F
MOLINE         CLOUDY    70  66  87 SE13      29.76F
ROCKFORD       CLOUDY    70  64  81 SE8       29.86F
PEORIA         CLOUDY    72  67  84 SE16G22   29.82S
$$

NOTE: "FAIR" INDICATES FEW OR NO CLOUDS BELOW 12,000 FEET WITH NO
SIGNIFICANT WEATHER AND/OR OBSTRUCTIONS TO VISIBILITY. WIND
SPEEDS ARE IN MILES-PER-HOUR.



USA.gov is the U.S. government's official web portal to all federal, state and local government web resources and services.